sat.trackr.live / text

‹ back to catalog

STARLINK-35135

NORAD 65629 · 2025-210H

PAYLOAD ACTIVE UNKNOWN

§ Identity

Operator
Country
US
Launch date
2025-09-18
Launch site
AFETR
Launch vehicle
Mass (kg)
RCS (m²)

Purposes: comms

External: N2YO · Heavens-Above · Gunter

§ Orbital elements

Epoch: 2026-05-25T04:43:34.165344Z

Period
93.85 min
Inclination
53.1602°
Eccentricity
0.0000901
Mean motion
15.34416278 rev/d
Perigee alt
462.0 km
Apogee alt
463.3 km
Semi-major
6,840.8 km
B*
6.7799e-4
RAAN
311.0762°
Arg perigee
86.0737°
Mean anomaly
274.0368°
Rev number
3,945

§ Raw data

STARLINK-351351 65629U 25210H   26145.19692321  .00022611  00000+0  67799-3 0  99912 65629  53.1602 311.0762 0000901  86.0737 274.0368 15.34416278 39450

JSON: /api/v1/satellites/65629 · /tle

For live sub-satellite position, see the globe view (requires WebGL).

§ Visibility from observer

Set your observer location to see the next 7 days of passes ≥ 10°. The values pass through the URL so the page stays shareable.

No JS? Fill the form by hand. The geolocation button needs JavaScript.